This demonstration page uses our WeatherBlox Daily Observations layout. Learn more.

Left ArrowRight Arrow

39.29038, -76.61219

Hourly Observations for March 10, 2015

Temp ( °F °C ) Dew Point ( °F °C ) Humidity (%) Winds ( mph kmh ) Pressure ( in mb ) Visibility ( mi km ) Precip ( " mm )
12:54 am 00:54 undefined 42 5.6 33 0.6 71 71 undefined N/A 30.26 1025 N/A 0.00 0.00
1:54 am 01:54 undefined 43 6.1 33 0.6 68 68 undefined N/A 30.27 1025 N/A 0.00 0.00
2:54 am 02:54 undefined 42 5.6 32 0 68 68 undefined N/A 30.26 1025 N/A 0.00 0.00
3:54 am 03:54 undefined 41 5 31 -0.6 67 67 undefined N/A 30.24 1024 N/A 0.00 0.00
4:54 am 04:54 undefined 41 5 31 -0.6 67 67 undefined N/A 30.24 1024 N/A 0.00 0.00
6:54 am 06:54 undefined 41 5 31 -0.6 67 67 undefined N/A 30.27 1025 N/A 0.00 0.00
7:54 am 07:54 undefined 43 6.1 31 -0.6 63 63 undefined N/A 30.26 1025 N/A 0.00 0.00
8:54 am 08:54 undefined 44 6.7 31 -0.6 60 60 undefined N/A 30.27 1025 N/A 0.00 0.00
9:54 am 09:54 undefined 46 7.8 33 0.6 61 61 undefined N/A 30.28 1025 N/A 0.00 0.00
10:54 am 10:54 undefined 47 8.3 34 1.1 61 61 undefined N/A 30.27 1025 N/A 0.00 0.00
11:54 am 11:54 undefined 48 8.9 36 2.2 63 63 undefined N/A 30.24 1024 N/A 0.00 0.00
12:54 pm 12:54 undefined 47 8.3 37 2.8 69 69 undefined N/A 30.23 1024 N/A 0.00 0.00
1:54 pm 13:54 undefined 47 8.3 38 3.3 71 71 undefined N/A 30.18 1022 N/A 0.02 0.51
2:54 pm 14:54 undefined 46 7.8 41 5 83 83 undefined N/A 30.15 1021 N/A 0.01 0.25
3:54 pm 15:54 undefined 45 7.2 43 6.1 93 93 undefined N/A 30.13 1020 N/A 0.06 1.52
4:54 pm 16:54 undefined 45 7.2 43 6.1 93 93 undefined N/A 30.10 1019 N/A 0.04 1.02
5:54 pm 17:54 undefined 43 6.1 42 5.6 97 97 undefined N/A 30.10 1019 N/A 0.04 1.02
6:54 pm 18:54 undefined 43 6.1 41 5 93 93 undefined N/A 30.09 1019 N/A 0.05 1.27
7:54 pm 19:54 undefined 44 6.7 42 5.6 93 93 undefined N/A 30.08 1019 N/A 0.04 1.02
8:54 pm 20:54 undefined 45 7.2 44 6.7 97 97 undefined N/A 30.07 1018 N/A 0.04 1.02
9:54 pm 21:54 undefined 45 7.2 44 6.7 97 97 undefined N/A 30.04 1017 N/A 0.07 1.78
10:54 pm 22:54 undefined 45 7 45 7 100 100 undefined N/A 30.03 1017 N/A 0.06 1.52
11:54 pm 23:54 undefined 45 7.2 44 6.7 97 97 undefined N/A 30.01 1016 N/A 0.01 0.25

Powered by AerisWeather